Flag for Germany Weather past 2 weeks in Esslingen, Baden-Württemberg, Germany

Now
37 °F

Clear.


Feels Like: 33 °F
Forecast: 30 / 46 °F
Wind: 6 mph from Northwest

Location: Stuttgart-Echterdingen

Current Time: Mar 5, 2015 at 10:15:46 PM

Latest Report: Mar 5, 2015 at 9:20 PM


Visibility: 10 mi

Pressure: 30.60 "Hg

Humidity: 70%

Dew point: 28 °F

Location of EsslingenLocation

Historic Weather in Esslingen — Graph

°F

Esslingen temperature yesterday

Maximum temperature yesterday: 46 °F (at 2:20 PM)
Minimum temperature yesterday: 34 °F (at 10:20 PM)
Average temperature yesterday: 39 °F

Past Weeks' High & Low Weather Summary

 TemperatureHumidityPressure
High55 °F (Feb 20, 2:20 PM)100% (Feb 20, 2:20 AM)30.63 "Hg (Feb 20, 2:20 AM)
Low23 °F (Feb 20, 4:20 AM)34% (Feb 26, 3:20 PM)29.50 "Hg (Feb 23, 3:20 PM)
Average38 °F77%29.99 "Hg
* Reported Feb 18 9:20 PM — Mar 5 9:20 PM, Esslingen, Weather by CustomWeather, © 2015

Note: Actual official high and low records may vary slightly from our data, if they occured in-between our weather recording intervals... More about our weather records

Advertising

Esslingen weather history for previous 24 hours

 ConditionsComfort  
Time TempWeatherWind HumidityBarometerVisibility
9:20 PM
Thu, Mar 5
37 °FClear.6 mph70%30.60 "Hg10 mi
8:50 PM37 °FClear.7 mph70%30.60 "Hg10 mi
8:20 PM39 °FPassing clouds.6 mph65%30.60 "HgN/A
7:50 PM39 °FPassing clouds.7 mph65%30.60 "HgN/A
7:20 PM39 °FPassing clouds.7 mph65%30.60 "HgN/A
6:50 PM39 °FPassing clouds.8 mph65%30.57 "HgN/A
6:20 PM41 °FPassing clouds.10 mph61%30.57 "HgN/A
5:50 PM41 °FPartly sunny.13 mph61%30.57 "HgN/A
5:20 PM41 °FPartly sunny.12 mph57%30.57 "HgN/A
4:50 PM43 °FPartly sunny.10 mph53%30.57 "HgN/A
4:20 PM43 °FBroken clouds.10 mph53%30.54 "HgN/A
3:50 PM43 °FBroken clouds.8 mph49%30.54 "HgN/A
3:20 PM43 °FBroken clouds.8 mph49%30.54 "HgN/A
2:50 PM43 °FScattered clouds.13 mph46%30.54 "HgN/A
2:20 PM43 °FScattered clouds.9 mph49%30.57 "HgN/A
1:50 PM43 °FScattered clouds.9 mph53%30.57 "HgN/A
1:20 PM41 °FScattered clouds.12 mph53%30.57 "HgN/A
12:50 PM41 °FScattered clouds.10 mph57%30.57 "HgN/A
12:20 PM41 °FScattered clouds.12 mph57%30.57 "HgN/A
11:50 AM39 °FScattered clouds.9 mph61%30.57 "HgN/A
11:20 AM39 °FPartly sunny.13 mph61%30.57 "HgN/A
10:50 AM37 °FScattered clouds.12 mph65%30.57 "HgN/A
10:20 AM37 °FBroken clouds.12 mph70%30.57 "HgN/A
9:50 AM37 °FPartly sunny.9 mph70%30.57 "HgN/A
9:20 AM37 °FPartly sunny.12 mph70%30.57 "HgN/A
8:50 AM37 °FPartly sunny.14 mph75%30.54 "HgN/A
8:20 AM36 °FPartly sunny.12 mph81%30.54 "HgN/A
7:50 AM36 °FPartly sunny.13 mph81%30.54 "HgN/A
7:20 AM36 °FPartly sunny.14 mph81%30.51 "HgN/A
6:50 AM36 °FPassing clouds.13 mph81%30.51 "HgN/A
6:20 AM36 °FPassing clouds.15 mph81%30.51 "HgN/A
5:20 AM36 °FPassing clouds.10 mph81%30.48 "HgN/A
4:20 AM36 °FPassing clouds.9 mph81%30.48 "HgN/A
3:50 AM36 °FPassing clouds.13 mph81%30.48 "HgN/A
2:50 AM37 °FPassing clouds.12 mph75%30.45 "HgN/A
2:20 AM36 °FPassing clouds.10 mph81%30.45 "HgN/A
1:50 AM36 °FPassing clouds.5 mph81%30.45 "HgN/A
1:20 AM36 °FPassing clouds.7 mph75%30.45 "HgN/A
12:50 AM34 °FPassing clouds.7 mph81%30.45 "HgN/A
12:20 AM34 °FPassing clouds.6 mph81%30.45 "HgN/A
11:50 PM
Wed, Mar 4
36 °FPassing clouds.7 mph75%30.42 "HgN/A
11:20 PM34 °FPassing clouds.8 mph81%30.42 "HgN/A
10:20 PM34 °FPassing clouds.9 mph81%30.42 "HgN/A
Weather by CustomWeather, © 2015

See weather overviewHow to use our weather pages